Miscellaneous Local Product
Issued by NWS North Platte, NE

Home | Current Version | Previous Version | Text Only | Print | Product List | Glossary On
Versions: 1 2 3 4 5 6 7 8 9 10 11 12 13 14 15 16 17 18 19 20 21 22 23 24 25 26 27 28 29 30 31 32 33 34 35 36 37 38 39 40 41 42 43 44 45 46 47 48 49 50
000
AXUS43 KLBF 251810
MISLBF


WESTERN AND NORTH CENTRAL NEBRASKA HOURLY WEATHER ROUNDUP
NATIONAL WEATHER SERVICE NORTH PLATTE NE
100 PM CDT SAT APR 25 2015

***STATIONS NOT REPORTING VARIABLES SUCH AS SKY/WEATHER OR
PRESSURE ARE PROVIDED BY THE NEBRASKA DEPARTMENT OF
ROADS...RAWS...AND APRS NETWORKS...AND ARE NOT UNDER
NATIONAL WEATHER SERVICE QUALITY CONTROL***

...OBSERVATIONS IN AND NEAR THE EASTERN PANHANDLE OF NEBRASKA...

CITY           SKY/WX    TMP DP  RH WIND       PRES   REMARKS
PINE RIDGE     CLOUDY    50  46  86 E9        29.73S
CHADRON        SUNNY     61  49  64 NE15      29.70S
ALLIANCE       SUNNY     64  44  48 VRB5      29.70F
SIDNEY         SUNNY     66  43  43 NE9       29.73S
$$

...OBSERVATIONS IN NORTH CENTRAL NEBRASKA...

CITY           SKY/WX    TMP DP  RH WIND       PRES   REMARKS
VALENTINE      CLOUDY    58  48  69 E9        29.73R
THEDFORD       PTSUNNY   60  50  70 N5        29.72S
AINSWORTH      CLOUDY    58  50  73 E12       29.72S
O`NEILL        CLOUDY    49  49  99 NE9       29.74R FOG
ORD            CLOUDY    50  47  89 NE12      29.71R FOG
BROKEN BOW     CLOUDY    57  51  80 NE12      29.71R
$$

...OBSERVATIONS IN SOUTHWEST NEBRASKA AND FAR NORTHEAST COLORADO...

CITY           SKY/WX    TMP DP  RH WIND       PRES   REMARKS
WRAY           FAIR      66  44  45 N6        29.72F
HOLYOKE        FAIR      64  45  48 NE7       29.72S
IMPERIAL       MOSUNNY   66  45  46 NE7       29.70F
OGALLALA       MOSUNNY   66  47  50 NE7       29.71S
MCCOOK         MOSUNNY   68  51  54 NE9       29.68F
LEXINGTON      MOSUNNY   63  53  70 NE12G21   29.69R
$$

...NORTH PLATTE AREA...

CITY           SKY/WX    TMP DP  RH WIND       PRES   REMARKS
$$

...SOME WEATHER OBSERVATIONS FROM AROUND THE REGION...

CITY           SKY/WX    TMP DP  RH WIND       PRES   REMARKS
DENVER         CLOUDY    65  26  23 S8        29.72F
LARAMIE        PTSUNNY   49  33  54 W9        29.79S
CHEYENNE       MOSUNNY   60  30  32 SW6       29.75R
SCOTTSBLUFF    SUNNY     67  41  38 VRB3      29.71F
RAPID CITY     CLOUDY    49  46  90 SE15      29.72R FOG
PIERRE         CLOUDY    49  47  93 E8        29.76R FOG
WINNER         CLOUDY    54  48  80 E12       29.74S
SIOUX FALLS    CLOUDY    59  45  59 E17G23    29.76R
OMAHA          LGT RAIN  48  46  93 NE16      29.68R FOG
GRAND ISLAND   CLOUDY    48  47  96 NE15      29.70R FOG
KANSAS CITY    LGT RAIN  58  57  97 NW6       29.51R FOG
WICHITA        MOSUNNY   73  51  46 NW17      29.61S
HAYS           MOSUNNY   70  52  52 N12       29.65F
LIBERAL        SUNNY     75  39  27 NW18      29.71F
GOODLAND       SUNNY     66  45  46 N13       29.70F
$$



USA.gov is the U.S. government's official web portal to all federal, state and local government web resources and services.